{"data":{"norad_id":64839,"epoch":"2026-09-21T18:06:32.338080Z","epoch_age_seconds":62774,"freshness":"FRESH","line1":"1 64839U 25151Z   26264.75454095  .00001720  00000+0  25460-3 0  9992","line2":"2 64839  51.9040 101.1924 0001146 114.3097 245.7985 14.79929867 65076","mean_motion":14.79929867,"eccentricity":0.0001146,"inclination_deg":51.904,"raan_deg":101.1924,"arg_perigee_deg":114.3097,"mean_anomaly_deg":245.7985,"bstar":0.0002546,"rev_number":6507,"period_min":97.301908158598,"perigee_km":628.74243888037,"apogee_km":630.34859971379,"semimajor_km":7007.6825192971,"source":"CELESTRAK","updated_at":"2026-09-22T09:00:29.980072Z"}}